{"data":{"norad_id":27426,"epoch":"2026-05-24T22:05:14.847072Z","epoch_age_seconds":81856,"freshness":"FRESH","line1":"1 27426U 02023A   26144.92031073 -.00000059  00000+0  00000+0 0  9993","line2":"2 27426   4.8210  75.5945 0003338 346.0995  42.0239  1.00271999 87896","mean_motion":1.00271999,"eccentricity":0.0003338,"inclination_deg":4.821,"raan_deg":75.5945,"arg_perigee_deg":346.0995,"mean_anomaly_deg":42.0239,"bstar":0,"rev_number":8789,"period_min":1436.0938391185,"perigee_km":35772.460401826,"apogee_km":35800.609536832,"semimajor_km":42164.671969329,"source":"CELESTRAK","updated_at":"2026-05-25T13:38:14.322443Z"}}